SL-16 DEB, 22406

Orbit data source: Space-Track

SL-16 DEB, 22406 is space debris in LEO originally from a launch on Fri, 25 Dec 1992 UTC launched from the Tyuratam Missile And Space Complex (TTMTR). Debris objects in space refer to the collection of defunct objects orbiting the Earth. Examples of debris include non-operational satellites, rocket bodies, and fragments generated from explosions, collisions, or faulty payload assembly.

Loading next visibility...
Identifier
22406, 1992-093CX
Orbit
LEO
Country
Flag of CISCIS
Related business
Manufacturer
Unknown
Mission
Spacecraft
Bus & Motor
Unknown
Mass
Unknown
Launch date (UTC)
1992-12-25 (33 years ago)
Launch vehicle
Unknown
Launch site
Tyuratam Missile And Space Complex (TTMTR)
Object type
Payload
Rocket body
Debris
Shape & HBR
Unknown shape, 0.1 m
Radar Cross Section
Small (<0.1 m²)

Expand to show TLE details & history
Last TLE update: 14 hours ago

TLE from 14 hours ago
0 SL-16 DEB
1 22406U 92093CX  25303.25081572  .00000442  00000-0  39332-3 0  9993
2 22406  70.7531 284.2175 0175144 236.5250 140.2369 13.83521080651999
Epoch: 2025-10-30T06:01Z
TLE epoch observation values (Epoch: 2025-10-30T06:01:10.478Z)
Latitude
16.98084°
Longitude
161.2005°
Altitude
1,052.752 km
Speed
7.277 km/s
True Right ascension
19h 21m 13s
True Declination
16° 53' 20"
Sunlit
Object was in daylight at epoch
Visualization orbit readout
Latitude
Unknown
Longitude
Unknown
Altitude
Unknown
Speed
Unknown
Apparent Right ascension
Unknown
Apparent Declination
Unknown
Sunlit
N/A
Visualization observer readout
Local Sidereal Time
15:29:08
Azimuth
Unknown
Elevation
Unknown
Doppler factor
Unknown
Orbital elements
Apogee altitude
1,077.741 km
Perigee altitude
821.066 km
Semi-major axis
7,327.54 km
Eccentricity
0.01751
Inclination
70.7531°
RAAN
284.2175°
Arg. of periapsis
236.525°
True anomaly
141.49925°
Mean anomaly
140.2369°
Eccentric anomaly
140.87019°
Mean motion
3.46024 °/min
Orbital period
104.04 mins
BSTAR
0.00039332
Loading maneuver chart data...
Computing Atmospheric mass density...
Loading historical data...
Loading historical data...
Loading historical data...
Loading historical data...
Loading historical data...
Loading historical data...
Loading historical data...

Documentation

Showing up to 5 results
|